Location: Oare
(51.3167°N, 0.8833°E)
Time: 15:12:33
(UTC+00:00)

Daily predictions for brighter satellites

Satellite Brightness Start Highest point End
(mag) Time Altitude Azimuth Time Altitude Azimuth Time Altitude Azimuth
NOAA 12 4.3 16:17:41 10° SE 16:22:50 53° ENE 16:28:00 10° N
ATLAS CENTAUR R/B 3.9 16:13:39 10° SSW 16:23:54 44° SE 16:28:22 10° ENE
Cosmos 1898 Rocket 3.5 16:18:45 10° NNW 16:24:02 72° ENE 16:29:14 10° SSE
Cosmos 2369 3.8 16:19:00 10° NNW 16:24:41 56° NE 16:30:17 10° SE
NOSS 2-1 (E) 4.0 16:22:29 10° WSW 16:25:30 35° NW 16:28:51 10° NE
Meteor PRIRODA 3.8 16:23:08 10° SE 16:26:38 49° ENE 16:30:09 10° N
USA 305 3.1 16:23:34 10° W 16:27:46 59° N 16:31:59 10° ENE
Cosmos 1633 Rocket 4.5 16:24:54 10° NNE 16:27:50 17° ENE 16:30:45 10° ESE
Cosmos 1933 4.3 16:24:58 10° SSE 16:28:26 28° E 16:31:55 10° NNE
NOSS 2-2 (C) 4.2 16:24:38 10° NW 16:29:26 68° NE 16:36:07 10° SE
Cosmos 1818 4.2 16:25:14 10° NW 16:30:21 37° NNE 16:35:25 10° E
Cosmos 2034 Rocket 4.1 16:25:02 10° S 16:31:03 60° E 16:37:07 10° NNE
FengYun 1-2 T 4.4 16:26:01 10° SE 16:31:25 53° ENE 16:36:47 10° N
SL-16 R/B 3.3 16:27:10 10° NNW 16:31:38 23° NE 16:36:05 10° E
CZ-4B R/B 2.9 16:27:58 10° SSE 16:31:51 55° ENE 16:35:33 10° N
Iridium 2 4.5 16:28:13 10° NNW 16:31:55 55° W 16:35:34 10° S
Cosmos 1408 Rocket 3.9 16:30:06 10° NNW 16:34:28 73° W 16:38:51 10° S
ADEOS 3.9 16:30:44 10° S 16:35:56 74° WSW 16:41:12 10° NNW
Cosmos 2082 Rocket 3.3 16:33:19 10° SSE 16:37:57 27° ESE 16:42:36 10° NE
USA 267 3.9 16:32:42 10° ENE 16:38:52 43° SE 16:45:01 10° SSW
SMAP 3.3 16:37:56 10° SE 16:42:24 48° ENE 16:46:54 10° N
Cosmos 1743 Rocket 3.5 16:40:17 10° N 16:44:39 81° E 16:48:58 10° SSE
Cosmos 2333 Rocket 4.0 16:43:06 10° N 16:46:07 14° NNE 16:49:04 10° NE
Meteor 1-25 Rocket 4.2 16:40:36 10° N 16:46:12 75° ENE 16:51:49 10° SSE
Cosmos 2278 3.9 16:42:21 10° NNW 16:47:55 50° NE 16:53:26 10° SE
Cosmos 1763 Rocket 3.4 16:43:23 10° SSW 16:48:26 71° ESE 16:53:34 10° NNE
Cosmos 2026 Rocket 4.0 16:42:57 10° N 16:48:59 56° ENE 16:54:57 10° SSE
ARGOS 4.1 16:45:01 10° ESE 16:49:18 25° ENE 16:53:37 10° N
Cosmos 1602 3.7 16:45:48 10° N 16:49:37 59° ENE 16:53:27 10° SSE
Cosmos 1634 Rocket 4.4 16:44:04 10° SSE 16:49:57 43° E 16:55:51 10° NNE
SL-16 R/B 4.4 16:50:29 10° NNW 16:52:18 11° NNW 16:54:08 10° N
CZ-4B DEB 4.4 16:47:10 10° SE 16:52:28 51° ENE 16:57:46 10° N
Cosmos 44 Rocket 3.7 16:47:51 10° NW 16:52:37 43° NE 16:57:13 10° ESE
SJ 16-02 4.4 16:50:14 10° WNW 16:52:55 16° W 16:55:36 10° SW
Cosmos 2195 Rocket 4.4 16:46:57 10° N 16:53:06 69° ENE 16:59:18 10° SSE
SeaSat 1 3.5 16:50:31 10° NNE 16:55:08 40° NW 16:59:43 10° WSW
Cosmos 1833 Rocket 2.7 16:49:45 10° SSW 16:55:19 68° ESE 17:00:56 10° NE
Cosmos 1666 Rocket 4.2 16:51:46 10° N 16:55:50 33° ENE 16:59:50 10° SE
Cosmos 841 Rocket 4.0 16:52:06 10° S 16:56:53 40° ESE 17:01:41 10° NE
CZ-2C R/B 3.1 16:52:35 10° S 16:57:25 77° WSW 17:02:12 10° NNW
Okean O Rocket 2.7 16:55:43 10° ESE 16:59:13 23° ENE 17:02:44 10° N
USA 306 3.0 16:55:53 10° WNW 17:00:06 60° N 17:03:36 14° E
Cosmos 1937 Rocket 3.7 16:55:29 10° NNW 17:00:50 81° WSW 17:06:09 10° SSE
Cosmos 1809 Rocket 4.4 16:55:01 10° N 17:01:08 74° ENE 17:07:12 10° SSE
H-2A R/B 2.3 16:57:52 10° SE 17:02:41 42° ENE 17:07:22 10° N
Cosmos 2219 Rocket 3.9 16:59:52 10° N 17:02:47 14° NNE 17:04:46 12° NE
ISS -2.4 17:00:09 10° W 17:03:23 41° SSW 17:06:35 10° SE
Cosmos 1939 Rocket 2.8 16:59:43 10° SSE 17:03:48 79° ENE 17:07:53 10° N
COSMOS 2406 3.3 16:58:50 10° SSW 17:04:29 63° ESE 17:10:09 10° NE
ATLAS 2AS CENTAUR R/B 3.9 16:58:09 10° WNW 17:04:58 33° N 17:10:36 13° NE
Cosmos 1606 4.4 17:02:09 10° SW 17:05:36 33° WNW 17:09:06 10° N
Cosmos 372 Rocket 3.9 17:00:24 10° NNW 17:05:39 76° ENE 17:10:55 10° SSE
Cosmos 1125 Rocket 4.3 17:02:16 10° N 17:06:52 30° NE 17:11:28 10° ESE
CZ-2C R/B 3.7 17:02:59 10° NE 17:06:59 23° E 17:11:03 10° SE
Cosmos 1500 3.1 17:05:48 10° N 17:09:32 64° ENE 17:13:14 10° SSE
Cosmos 1500 Rocket 4.5 17:07:59 10° NNW 17:12:19 52° W 17:16:35 10° S
USA 234 3.4 17:07:51 10° SE 17:14:25 80° SSW 17:20:59 10° WNW
Sich 1 2.9 17:12:49 10° N 17:17:08 87° E 17:21:28 10° S
Cosmos 1782 2.8 17:13:26 10° S 17:17:21 60° E 17:21:18 10° NNE
Cosmos 2221 4.0 17:13:44 10° SW 17:17:41 36° WNW 17:21:43 10° N
SL-08 R/B 3.8 17:13:54 10° N 17:18:34 60° WNW 17:23:07 10° SSW
CZ-2D R/B 3.3 17:15:28 10° SSE 17:19:12 55° ENE 17:22:57 10° N
USA 307 3.0 17:15:32 10° WNW 17:19:46 62° N 17:22:25 22° E
CZ-4B R/B 3.3 17:16:32 10° SE 17:21:42 48° ENE 17:26:48 10° N
ATLAS 5 CENTAUR R/B 2.7 17:14:51 10° NW 17:24:17 56° NNE 17:26:27 22° E
Cosmos 1805 Rocket 4.0 17:20:10 10° NNW 17:24:28 64° W 17:28:45 10° S
NOAA 6 4.2 17:19:37 10° S 17:24:45 77° WSW 17:29:55 10° NNW
SL-24 R/B - RUBIN 2 4.5 17:23:01 10° NW 17:27:27 51° SW 17:31:38 10° SSE
PAYLOAD B 4.2 17:22:17 10° SSE 17:27:52 74° ENE 17:33:27 10° NNW
ERBS 3.4 17:27:08 10° WNW 17:30:00 28° N 17:30:53 24° NNE
deb Chang Zheng 4 3.7 17:27:36 10° SE 17:31:44 47° ENE 17:35:53 10° N
Cosmos 2360 Rocket 3.1 17:30:50 10° NNW 17:35:44 28° NE 17:37:21 25° ENE
Lacrosse 5 rocket 1.2 17:32:35 10° WNW 17:36:29 90° S 17:39:14 20° ESE
Cosmos 540 Rocket 3.5 17:31:24 10° SSW 17:36:31 81° WNW 17:41:12 13° NNE
H-2A R/B 4.5 17:40:45 13° NNE 17:40:45 13° NNE 17:41:23 10° N
Cosmos 1666 2.5 17:34:54 10° N 17:38:39 75° E 17:42:21 10° SSE
ATLAS CENTAUR R/B 3.6 17:35:50 10° NW 17:38:51 17° NNW 17:41:01 13° NNE
USA 308 2.9 17:38:09 10° WNW 17:42:24 68° NNE 17:44:08 34° E
Meteor 2-16 Rocket 4.4 17:41:56 10° N 17:48:06 87° E 17:54:14 10° S
Meteor 1-11 Rocket 3.9 17:45:46 10° N 17:51:12 47° ENE 17:56:43 10° SE
COSMOS 2428 4.2 17:48:09 10° NNW 17:52:06 19° NNE 17:52:06 19° NNE
COSMOS 2455 2.8 17:46:37 10° SW 17:52:39 89° NW 17:56:39 23° NE
PSLV R/B 4.5 17:51:04 10° S 17:54:41 53° W 17:58:23 10° NNW
CZ-4 R/B 3.5 17:59:19 14° N 17:59:19 14° N 18:00:01 10° N
Cosmos 2322 Rocket 2.3 17:51:48 10° NNW 17:57:23 51° NE 18:00:16 27° ESE
Cosmos 1814 Rocket 3.9 17:52:41 10° SSW 17:57:53 77° ESE 18:00:57 25° NNE
Cosmos 921 Rocket 3.5 17:54:23 10° S 17:57:55 38° ESE 17:57:55 38° ESE
YAOGAN 3 4.4 17:54:35 10° SSE 17:58:56 72° ENE 18:03:17 10° N
Cosmos 1570 Rocket 3.9 17:53:48 10° SSW 17:59:00 70° ESE 18:01:47 28° NE
Cosmos 2298 Rocket 3.9 17:55:26 10° NNW 18:00:47 76° ENE 18:06:08 10° SSE
SL-08 RB Rocket 3.7 17:56:30 10° SSE 18:01:01 55° ENE 18:05:32 10° N
COSMO-SKYMED 1 2.6 17:59:55 38° NE 18:01:20 58° E 18:05:37 10° S
Cosmos 1980 Rocket 3.5 17:56:30 10° NW 18:01:50 42° WSW 18:07:05 10° S
CZ-4C R/B 3.4 17:55:39 10° NW 18:02:41 62° SW 18:10:55 10° SSE
Cosmos 1356 Rocket 3.6 18:00:34 10° N 18:04:08 48° NE 18:04:08 48° NE
Cosmos 1633 Rocket 3.4 18:01:45 10° NNW 18:06:07 66° W 18:10:26 10° S
Cosmos 1812 3.0 18:03:41 10° SSW 18:07:31 65° WNW 18:09:54 22° N
USA 305 2.8 18:03:37 10° WNW 18:07:53 84° NNE 18:08:38 59° E
Helios 1B 4.5 18:07:44 46° NE 18:08:50 65° ESE 18:13:08 10° S
Feng Yun 1-1 Rocket 4.3 18:06:29 10° SSE 18:12:20 67° ENE 18:18:08 10° NNW
YAOGAN 1 3.5 18:14:03 34° NNE 18:14:03 34° NNE 18:16:43 10° N
CZ-4 R/B 4.4 18:10:02 10° SSE 18:14:10 86° WSW 18:18:20 10° NNW
Cosmos 1818 4.0 18:08:50 10° NW 18:14:16 63° SW 18:19:38 10° SSE
Cosmos 1151 Rocket 3.3 18:10:15 10° SSW 18:14:33 66° WNW 18:17:49 17° N
Cosmos 2279 Rocket 4.0 18:09:05 10° SSW 18:15:19 79° WNW 18:21:33 10° N
SL-16 R/B 2.1 18:10:54 10° NNW 18:16:37 83° ENE 18:21:04 17° SSE
Cosmos 2266 Rocket 3.9 18:10:24 10° N 18:16:49 78° ENE 18:23:15 10° SSE
Cosmos 2237 Rocket 4.1 18:15:46 10° N 18:17:59 14° NNE 18:17:59 14° NNE
Cosmos 2082 Rocket 2.5 18:15:59 10° SW 18:21:38 64° NW 18:24:52 26° NNE
USA 267 3.2 18:19:25 37° ENE 18:22:16 83° NNW 18:28:49 10° WSW
Landsat 5 4.1 18:25:10 42° S 18:25:10 42° S 18:27:54 10° S
NOAA 15 4.4 18:20:22 10° SSE 18:25:38 71° ENE 18:30:54 10° NNW
ARGOS 3.5 18:23:47 10° S 18:29:10 67° WSW 18:34:34 10° NNW
Cosmos 1933 Rocket 3.8 18:27:04 10° N 18:30:31 55° N 18:30:31 55° N
GEOS 3 Rocket 3.5 18:30:35 60° ESE 18:31:30 76° NE 18:36:42 10° NW
Cosmos 2333 Rocket 3.1 18:26:50 10° NNW 18:31:05 34° NNE 18:31:05 34° NNE
Meteor 2-15 4.3 18:26:14 10° S 18:32:21 89° E 18:38:29 10° N
Cosmos 44 Rocket 4.4 18:29:32 10° NW 18:34:11 42° WSW 18:38:14 12° S
Okean O Rocket 2.4 18:30:55 10° S 18:35:16 53° W 18:39:40 10° NNW
Cosmos 2208 Rocket 4.1 18:30:21 10° SSW 18:35:46 78° WNW 18:37:42 41° NNE
Cosmos 2150 Rocket 4.4 18:32:06 10° NNW 18:37:13 63° WSW 18:42:22 10° S
Cosmos 1470 Rocket 4.3 18:32:52 10° NNW 18:37:14 54° W 18:41:35 10° S
Cosmos 1328 Rocket 4.2 18:34:09 10° SSW 18:38:31 54° WNW 18:40:29 30° NNW
SL-16 R/B 4.4 18:37:20 10° N 18:38:38 11° N 18:38:38 11° N
ISS -0.5 18:39:05 10° SW 18:39:30 10° SW 18:39:54 10° SW
Cosmos 1833 Rocket 4.3 18:34:50 10° WSW 18:39:44 30° NW 18:43:03 17° N
USA 306 3.2 18:35:52 10° WNW 18:39:36 64° W 18:39:36 64° W
H-2A R/B 3.7 18:37:38 10° SSW 18:42:13 32° W 18:46:43 10° NNW
CZ-2C R/B 3.0 18:44:29 23° N 18:47:42 60° WNW 18:52:46 10° SSW
Cosmos 2219 Rocket 3.4 18:43:10 10° NNW 18:46:30 29° N 18:46:30 29° N
Cosmos 1125 Rocket 4.1 18:44:08 10° NNW 18:49:15 55° WSW 18:54:22 10° S
SKYMED 2 4.3 18:48:31 43° NNW 18:49:24 50° WNW 18:53:36 10° SW
USA 32 4.1 18:45:04 10° S 18:49:25 63° S 18:49:25 63° S
ATLAS CENTAUR R/B 2.9 18:48:36 10° W 18:54:28 46° NW 18:54:28 46° NW
NOSS 3-4 (A) 3.9 18:48:27 10° NW 18:54:58 53° NE 18:55:00 53° NE
NOSS 3-4 (C) 3.9 18:48:33 10° NW 18:55:04 52° NE 18:55:05 52° NE
ATLAS 2AS CENTAUR R/B 3.5 18:50:57 10° NW 18:57:52 38° NNE 18:58:02 38° NNE
Meteor 1-27 Rocket 4.0 18:52:27 10° S 18:56:41 55° S 18:56:41 55° S
USA 307 4.1 18:55:31 10° WNW 18:58:27 41° W 18:58:27 41° W
Lacrosse 5 rocket 3.6 19:12:11 10° W 19:14:52 20° SW 19:14:52 20° SW
ATLAS CENTAUR R/B 4.2 19:16:14 10° NNW 19:17:07 13° NNW 19:17:07 13° NNW
Cosmos 2360 Rocket 2.7 19:14:36 10° NNW 19:19:09 56° NW 19:19:09 56° NW
COSMOS 2428 4.5 19:31:55 10° NNW 19:34:07 24° NNW 19:34:07 24° NNW
COSMOS 2455 4.3 19:34:09 10° W 19:39:23 29° NNW 19:39:49 29° NNW
Cosmos 2322 Rocket 3.6 19:36:11 10° NW 19:41:16 34° WSW 19:42:10 32° SW
USA 267 4.1 20:06:46 44° NW 20:06:46 44° NW 20:11:23 10° W
Cosmos 2082 Rocket 4.4 20:02:54 10° WNW 20:06:45 19° NW 20:06:45 19° NW
Cosmos 2333 Rocket 4.3 20:11:06 10° NW 20:13:07 22° NW 20:13:07 22° NW
ATLAS 2AS CENTAUR R/B 4.4 20:42:25 10° NW 20:45:28 27° NW 20:45:28 27° NW
